Regional Weather Roundup
Issued by NWS State College, PA

Home | Current Version | Previous Version | Text Only | Print | Product List | Glossary On
Versions: 1 2 3 4 5 6 7 8 9 10 11 12 13 14 15 16 17 18 19 20 21 22 23 24 25 26 27 28 29 30 31 32 33 34 35 36 37 38 39 40 41 42 43 44 45 46 47 48 49 50
000
ASUS41 KCTP 290603
RWRCTP

REGIONAL WEATHER ROUNDUP
NATIONAL WEATHER SERVICE STATE COLLEGE PA
200 AM EDT TUE JUL 29 2014

Note: "fair" indicates few or no clouds below 12,000 feet with no
significant weather and/or obstructions to visibility.

* = STATION THAT DOES NOT REPORT PRECIPITATION /E.G. RAIN...SNOW...ETC/
    THUNDER OR FOG.

PAZ002>004-007>009-013>016-020>023-029>032-290700-
WESTERN PENNSYLVANIA

CITY           SKY/WX    TMP DP  RH WIND       PRES   REMARKS
ERIE           CLOUDY    60  49  66 N8        29.92S
MEADVILLE      CLOUDY    53  47  79 W3        29.93S
FRANKLIN*      CLOUDY    50  45  81 W3        29.95S
NEW CASTLE       N/A     54  51  89 CALM      29.96F
BEAVER COUNTY  NOT AVBL
BUTLER*        CLOUDY    52  48  87 W3        29.96F
PITTSBURGH INT MOCLDY    55  52  89 W5        29.95F
PITTSBURGH     MOCLDY    54  50  86 CALM      29.94S
INDIANA*       CLOUDY    52  50  93 CALM      29.97S
LATROBE        CLEAR     54  54 100 CALM      29.95F
WASHINGTON CO* CLEAR     54  48  82 CALM      29.97S
$$

PAZ004>006-010>012-017>019-024>028-033>037-041-042-045-046-049>053-290700-
CENTRAL PENNSYLVANIA

CITY           SKY/WX    TMP DP  RH WIND       PRES   REMARKS
BRADFORD       CLOUDY    53  49  86 N6        29.90S
DUBOIS         CLOUDY    54  51  90 W6        29.91S
CLEARFIELD     CLOUDY    56  52  86 SW5       29.90S
JOHNSTOWN      PTCLDY    50  46  86 W6        29.94S
ALTOONA        MOCLDY    57  51  80 VRB3      29.91S
STATE COLLEGE  MOCLDY    59  55  85 W6        29.88R
WILLIAMSPORT   MOCLDY    60  53  77 W6        29.83S
SELINSGROVE    CLOUDY    61  56  83 NW5       29.85S
FT INDIANTOWN  CLEAR     63  56  77 W6        29.83S
CAPITAL CITY   CLEAR     62  55  77 NW7       29.84R
HARRISBURG     PTCLDY    64  55  72 NW7       29.83S
YORK           MOCLDY    63  57  81 NW3       29.84R
$$

PAZ038>040-043-044-047-048-054-055-060>062-067>071-290700-
EASTERN PENNSYLVANIA

CITY           SKY/WX    TMP DP  RH WIND       PRES   REMARKS
SCRANTON       PTCLDY    59  55  87 N3        29.82R
MOUNT POCONO   PTCLDY    56  51  84 NW13      29.81R
ALLENTOWN      CLEAR     63  54  72 NW6       29.80R
QUAKERTOWN*    CLEAR     63  55  77 CALM      29.81R
READING        PTCLDY    63  55  75 NW9       29.80S
LANCASTER      CLEAR     61  57  87 NW5       29.83R
COATESVILLE    CLEAR     63  63 100 NW8       29.82R
POTTSTOWN      CLEAR     62  55  77 W3        29.81R
BLUE BELL      CLEAR     64  59  82 CALM      29.79R
DOYLESTOWN     CLEAR     62  55  77 NW5       29.79R
WILLOW GROVE   NOT AVBL
NORTH PHILA    CLEAR     67  54  63 NW6       29.80R
PHILADELPHIA   CLEAR     68  55  63 NW7       29.80R
$$


USA.gov is the U.S. government's official web portal to all federal, state and local government web resources and services.